MUOS-2

Last updated on Tue Sep 22 2026 00:03:12 GMT+0000 (Coordinated Universal Time)

1 39206U 13036A 26264.56089447 -.00000013 00000+0 00000+0 0 9999 2 39206 5.1863 45.5474 0057425 178.1089 150.6954 1.00273154 48152
UTC large
Height (km)
Speed (km/s)
/
Latitude / Longitude
Inclination (degrees)
Orbital Period (minutes)
Azimuth
Elevation
Range (km)
Doppler Factor

Next 0 passes for location: London (51.5072 / 0.1276)

No passes found over London.
MUOS-2